Regional Weather Roundup
Issued by NWS

Home | Current Version | Previous Version | Text Only | Print | Product List | Glossary Off
Versions: 1 2 3 4 5 6 7 8 9 10 11 12 13 14 15 16 17 18 19 20 21 22 23 24 25 26 27 28 29 30 31 32 33 34 35 36 37 38 39 40 41 42 43 44 45 46 47 48 49 50

000
ASUS43 KLMK 211202
RWRKY
KENTUCKY REGIONAL WEATHER ROUNDUP
NATIONAL WEATHER SERVICE LOUISVILLE KY
700 AM EST SUN DEC 21 2014

NOTE "FAIR" INDICATES FEW OR NO CLOUDS BELOW 12,000 FEET
WITH NO SIGNIFICANT WEATHER AND/OR OBSTRUCTIONS TO VISIBILITY.

KYZ001>023-026-027-061>063-070>075-211300-
WESTERN AND SOUTH CENTRAL KENTUCKY

CITY           SKY/WX    TMP DP  RH WIND       PRES   REMARKS
PADUCAH        CLEAR     25  22  88 CALM      30.24S FOG
HENDERSON      CLEAR     23  19  86 CALM      30.28R
OWENSBORO      CLEAR     26  24  92 CALM      30.29R FOG
HOPKINSVILLE   CLEAR     26  23  89 NE3       30.25R
BOWLING GREEN  CLEAR     24  20  84 CALM      30.27R FOG
GLASGOW        NOT AVBL
$$

KYZ024-025-028>034-038-045-046-053-211300-
NORTH CENTRAL KENTUCKY

CITY           SKY/WX    TMP DP  RH WIND       PRES   REMARKS
LOUISVILLE/SDF FAIR      26  22  84 CALM      30.29S FOG
LOUISVILLE/LOU CLEAR     23  19  85 CALM      30.30S
FORT KNOX      FAIR      24  22  92 E5        30.26R WCI  18
$$

KYZ035>037-039>044-047>052-055>060-089>105-211300-
NORTHEAST KENTUCKY

CITY           SKY/WX    TMP DP  RH WIND       PRES   REMARKS
LEXINGTON      CLEAR     22  20  92 NE7       30.28S FOG     WCI  13
COVINGTON      MOCLDY    29  21  72 E8        30.29F WCI  21
FRANKFORT      CLEAR     19  16  88 CALM      30.28S
$$

KYZ054-064>069-076>088-106>120-211300-
SOUTHEAST KENTUCKY

CITY           SKY/WX    TMP DP  RH WIND       PRES   REMARKS
JACKSON        CLEAR     27  22  81 NE3       30.26R
LONDON         CLEAR     23  52 100 CALM      30.26R
SOMERSET       NOT AVBL
MIDDLESBORO    FOG       23  22  99 CALM      30.27S VSB 1
MONTICELLO     SUNNY     18  17  95 CALM      30.29R FOG
$$




USA.gov is the U.S. government's official web portal to all federal, state and local government web resources and services.